STARLINK-1674 (46555 NORAD) Tracking and Keplerian Element Data

This shows tracking and keplerian element data for the satellite.

Feedback or suggestion? Click here.




ElementValue
Catalog46555
NameSTARLINK-1674
Epoch Orbit177
Epoch Day304.91667824
Epoch Year2020
RAAN321.9157
Inclination52.9999
Eccentricity0.0001223
Argument of Perigee72.0683
Mean Anonmoly198.0576
Mean Motion15.62686951
Decay Rate0.00080871
L11 46555U 20070Z 20304.91667824 .00080871 00000-0 88251-3 0 9997
L22 46555 52.9999 321.9157 0001223 72.0683 198.0576 15.62686951 1772

Live tracking and technical data element details for STARLINK-1674 (NORAD 46555). STARLINK-1674 can be tracked NOW for your location showing map with azimuth and elevation plus other details from your city location.

Track the satellite on the map from your city or location and see movement details for azimuth, elevation, latitude, longitude, range, height, and movement on the map or in text.







IsCatalogInMostPopularTable: catalog: 46555, numindb: 3
Update: records affected: 1



GetName: 46555 STARLINK-1674

Hit Count: updated at: Sat, 31 Oct 2020 11:32:03 GMT